Regional Weather Roundup
Issued by NWS

Home | Current Version | Previous Version | Text Only | Print | Product List | Glossary Off
Versions: 1 2 3 4 5 6 7 8 9 10 11 12 13 14 15 16 17 18 19 20 21 22 23 24 25 26 27

000
ASUS45 KBOU 192307
RWRCO

WEATHER ROUNDUP FOR COLORADO
NATIONAL WEATHER SERVICE DENVER/BOULDER CO
500 PM MDT SAT AUG 19 2017

NOTE: "FAIR" INDICATES FEW OR NO CLOUDS BELOW 12000 FEET WITH NO
SIGNIFICANT WEATHER AND/OR OBSTRUCTIONS TO VISIBILITY.

COZ001>005-013-030-031-200000-
...NORTHWEST COLORADO...

CITY           SKY/WX    TMP DP  RH WIND       PRES   REMARKS
CRAIG          FAIR      88  19   8 NW12      30.12F
HAYDEN         FAIR      85  26  11 W18G24    30.16F
MEEKER         FAIR      84  27  12 W10       30.15F
RABBIT EARS PA FAIR      64  28  25 W10G24    30.48F
STEAMBOAT SPGS FAIR      83  25  12 W12G22    30.18S
WALDEN         FAIR      77  21  12 W14       30.29S
$$

COZ006>008-011-200000-
...WEST CENTRAL VALLEYS...

CITY           SKY/WX    TMP DP  RH WIND       PRES   REMARKS
GRAND JUNCTION FAIR      93  32  11 VRB5      30.01F
MONTROSE       FAIR      88  33  14 N7        30.11F
EAGLE          FAIR      83  34  17 SW8       30.19F
RIFLE          FAIR      86  35  16 S20G28    30.11F
DELTA          FAIR      95  28   9 N6        30.05F
NUCLA          FAIR      88  27  11 S12       30.14F
$$

COZ017>023-064>068-200000-
...SOUTHWEST COLORADO...

CITY           SKY/WX    TMP DP  RH WIND       PRES   REMARKS
DURANGO        FAIR      86  29  12 N13       30.16F
CORTEZ         FAIR      90  23   9 W13G23    30.10F
PAGOSA SPRINGS FAIR      81  22  11 W10G17    30.27F
TELLURIDE      FAIR      73  28  19 CALM      30.40F
WOLF CREEK PAS FAIR      59  32  36 SW10G17   30.65F
$$

COZ009-010-012-014-032>034-037-058>063-200000-
...CENTRAL COLORADO...

CITY           SKY/WX    TMP DP  RH WIND       PRES   REMARKS
ASPEN          FAIR      78  33  19 CALM      30.27F
BUENA VISTA    FAIR      77  26  15 NW8G16    30.26S
COPPER MTN     FAIR      63  27  25 W15G23    30.62S
BERTHOUD PASS  PTSUNNY   52  46  82 NW21G35   30.63F
COTTONWOOD PAS FAIR      77  21  12 N3G22     30.42F
GUNNISON       FAIR      76  38  25 N10       30.25F
KREMMLING      FAIR      82  27  13 SW15G23   30.23F
LEADVILLE      PTSUNNY   68  26  20 NW14G20   30.40F
MONARCH PASS   FAIR      61  25  25 W24G31    30.70S
SALIDA         PTSUNNY   82  32  16 N17G37    30.27S
SUNLIGHT       FAIR      61  32  33 W5        30.56S
WILKERSON PASS CLOUDY    59  28  31 NW18G26   30.56F
$$

COZ069>075-200000-
...SAN LUIS VALLEY/SANGRE DE CRISTO MOUNTAINS...

CITY           SKY/WX    TMP DP  RH WIND       PRES   REMARKS
ALAMOSA        FAIR      79  31  17 SW12      30.22F
DEL NORTE      FAIR      77  33  20 SW17G23   30.26F
LA VETA PASS   NOT AVBL
SAGUACHE       FAIR      79  30  17 NW8       30.24F
$$

COZ035-036-038>040-200000-
...NORTHERN COLORADO FRONT RANGE...

CITY           SKY/WX    TMP DP  RH WIND       PRES   REMARKS
DENVER INTL AP FAIR      92  29  10 E5        29.99F
DMNS CITY PARK   N/A     85  37  18 SW7       30.00R
AURORA         MOSUNNY   87  37  17 CALM      30.03F
FRONT RANGE AP FAIR      91  34  13 W3        30.02S
ERIE MUNI ARPT FAIR      94  28   9 NE12      30.01F
BOULDER MUN AP FAIR      88  36  15 CALM      29.98S
CENTENNIAL     FAIR      87  33  14 S10       30.05S
BROOMFIELD     PTSUNNY   88  34  14 VRB3      30.02F
FORT COLLINS   FAIR      93  40  15 E12       29.98S
LONGMONT       FAIR      95  36  12 NE7       29.98F
$$

COZ041-046-047-076>085-087-088-200000-
...PIKES PEAK/PALMER DIVIDE AND SOUTHERN FOOTHILLS...

CITY           SKY/WX    TMP DP  RH WIND       PRES   REMARKS
COLO. SPRINGS  FAIR      88  40  18 SE9       30.10F
A. F. ACADEMY  LGT RAIN  80  35  19 N20G36    30.14R
SCHRIEVER AFB  FAIR      85  37  18 SE12      30.10F
CHEYENNE MTN   FAIR      79  38  23 S6        30.10F
ELLICOTT       NOT AVBL
FALCON         FAIR      83  36  19 S7G17     30.17R
FORT CARSON    FAIR      87  43  21 S10       30.05F
LIMON          FAIR      89  37  16 CALM      30.02F
MONUMENT HILL  FAIR      79  41  25 S6        30.18S
CANON CITY     SUNNY     93  43  17 MISG      30.01F
WALSENBURG     FAIR      90  37  15 S14       30.08F
TRINIDAD       FAIR      83  42  23 S12       30.10S
$$

COZ042>045-048>051-090-091-200000-
...NORTHEAST COLORADO...

CITY           SKY/WX    TMP DP  RH WIND       PRES   REMARKS
GREELEY ARPT   FAIR      94  41  16 VRB5      29.96F
AKRON          FAIR      93  35  13 NW14      29.96F
BURLINGTON     FAIR      92  56  29 SW10      29.95F
WRAY           NOT AVBL
YUMA           NOT AVBL
STERLING       FAIR      95  43  16 S5        29.89F
HOLYOKE        FAIR      95  50  21 NE8       29.89R
FORT MORGAN    FAIR      97  31   9 W8G17     29.95F
$$

COZ086-089-092>099-200000-
...SOUTHEAST COLORADO...

CITY           SKY/WX    TMP DP  RH WIND       PRES   REMARKS
PUEBLO         FAIR      93  45  19 S14       29.97S
LA JUNTA       FAIR      93  48  21 W8        29.95F
LAMAR          FAIR      92  52  25 S23G31    29.92R
SPRINGFIELD      N/A     80  54  40 W10       30.05R
$$




USA.gov is the U.S. government's official web portal to all federal, state and local government web resources and services.